Regional Weather Roundup
Issued by NWS

Home | Current Version | Previous Version | Text Only | Print | Product List | Glossary Off
Versions: 1 2 3 4 5 6 7 8 9 10 11 12 13 14 15 16 17 18 19 20 21 22 23 24 25 26 27 28 29 30 31 32 33 34 35 36 37 38 39 40 41 42 43 44 45 46 47 48 49 50

000
ASUS45 KPSR 030600
RWRAZ

PRELIMINARY ARIZONA REGIONAL HOURLY WEATHER ROUNDUP
NATIONAL WEATHER SERVICE PHOENIX AZ
1100 PM MST MON MAR 02 2015

NOTE: FAIR INDICATES FEW OR NO CLOUDS BELOW 12,000 FEET WITH NO
SIGNIFICANT WEATHER AND/OR OBSTRUCTIONS TO VISIBILITY.

AZZ001>003-036-030700-
NORTHWEST ARIZONA

CITY           SKY/WX    TMP DP  RH WIND       PRES   REMARKS
KINGMAN        FAIR      37  34  89 SE7       29.96R WCI  32
6HR MIN TEMP:  36; 6HR MAX TEMP:  50; 6HR PCP: TRACE;

$$

AZZ004>008-015-016-018-030700-
NORTH CENTRAL ARIZONA

CITY           SKY/WX    TMP DP  RH WIND       PRES   REMARKS
GRAND CANYON   CLOUDY    28  28 100 SW10      29.95S WCI  19
6HR MIN TEMP:  28; 6HR MAX TEMP:  32; 6HR PCP:  0.01;

PRESCOTT       CLOUDY    36  33  89 S3        29.99S
6HR MIN TEMP:  35; 6HR MAX TEMP:  39; 6HR PCP:  0.07;

FLAGSTAFF      NOT AVBL
PAGE           MOCLDY    38  28  67 CALM      29.92R
6HR MIN TEMP:  38; 6HR MAX TEMP:  47;

$$

AZZ009>014-017-030700-
NORTHEAST ARIZONA

CITY           SKY/WX    TMP DP  RH WIND       PRES   REMARKS
WINSLOW        NOT AVBL
SAINT JOHNS    CLOUDY   N/A N/A N/A W8        29.99S
                                      6HR PCP:  0.08;

WINDOW ROCK    CLOUDY    32  28  85 SW6       29.95F WCI  26
6HR MIN TEMP:  32; 6HR MAX TEMP:  37; 6HR PCP:  0.03;

$$

AZZ023-030700-
GREATER PHOENIX AREA

CITY           SKY/WX    TMP DP  RH WIND       PRES   REMARKS
PHOENIX        CLOUDY    52  48  86 E3        30.00R
6HR MIN TEMP:  52; 6HR MAX TEMP:  56;

LUKE AFB       FAIR      52  49  92 NE5       29.99F
6HR MIN TEMP:  52; 6HR MAX TEMP:  56; 6HR PCP:  0.06;

DEER VALLEY    CLOUDY    50  44  80 CALM      30.00R
6HR MIN TEMP:  49; 6HR MAX TEMP:  53;

SCOTTSDALE     CLOUDY    50  45  83 CALM      30.01S
6HR MIN TEMP:  49; 6HR MAX TEMP:  53;

MESA-GATEWAY   MOCLDY    48  48 100 CALM      30.02S
$$

AZZ027-028-030700-
SOUTHWEST MARICOPA COUNTY AND PINAL COUNTY

CITY           SKY/WX    TMP DP  RH WIND       PRES   REMARKS
CASA GRANDE    FAIR      48  45  87 E5        30.00F
6HR MIN TEMP:  48; 6HR MAX TEMP:  52;

GILA BEND      FAIR      53  49  87 N6        29.99S
6HR MIN TEMP:  53; 6HR MAX TEMP:  60;

$$

AZZ503-504-507>509-030700-
SOUTHEAST ARIZONA

CITY           SKY/WX    TMP DP  RH WIND       PRES   REMARKS
TUCSON         CLOUDY    52  47  83 NE5       30.02S
6HR MIN TEMP:  51; 6HR MAX TEMP:  53; 6HR PCP:  0.24;

DAVIS-MONTHAN  MOCLDY    51  46  82 N5        29.99F
6HR MIN TEMP:  50; 6HR MAX TEMP:  51; 6HR PCP:  0.11;

NOGALES        LGT RAIN  50  46  86 S6        29.99F
6HR MIN TEMP:  48; 6HR MAX TEMP:  57; 6HR PCP:  0.04;

SIERRA VISTA   MOCLDY    46  46 100 NW6       29.99F
                                      6HR PCP:  0.14;

SAFFORD        LGT RAIN  47  40  76 NW9       30.00R
6HR MIN TEMP:  47; 6HR MAX TEMP:  65; 6HR PCP:  0.04;

$$

AZZ020-021-025-026-031-030700-
SOUTHWEST ARIZONA

CITY           SKY/WX    TMP DP  RH WIND       PRES   REMARKS
YUMA           MOCLDY    55  47  74 CALM      29.97S
6HR MIN TEMP:  55; 6HR MAX TEMP:  62; 6HR PCP: TRACE;

$$

CAZ031-033-041-043-047-048-061-030700-
SOUTHERN CALIFORNIA

CITY           SKY/WX    TMP DP  RH WIND       PRES   REMARKS
DOWNTOWN L.A.  CLOUDY    55  46  71 E6        29.97R
6HR MIN TEMP:  55; 6HR MAX TEMP:  62; 6HR PCP: TRACE;

L.A. AIRPORT   MOCLDY    53  44  71 E8        29.98R
6HR MIN TEMP:  53; 6HR MAX TEMP:  58;

SAN DIEGO      LGT RAIN  56  47  71 CALM      30.00R
6HR MIN TEMP:  55; 6HR MAX TEMP:  61; 6HR PCP:  0.01;

BURBANK        FAIR      53  45  74 E9        29.96S
6HR MIN TEMP:  51; 6HR MAX TEMP:  57;

ONTARIO        MOCLDY    50  42  74 VRB3      29.97S
6HR MIN TEMP:  47; 6HR MAX TEMP:  57;

RIVERSIDE      FAIR      48  41  76 NE3       29.98S
6HR MIN TEMP:  48; 6HR MAX TEMP:  56; 6HR PCP: TRACE;

PALM SPRINGS   FAIR      49  44  83 CALM      29.98R
6HR MIN TEMP:  49; 6HR MAX TEMP:  58;

EL CENTRO NAS  FAIR      52  42  69 W13       29.95F
6HR MIN TEMP:  52; 6HR MAX TEMP:  64;

IMPERIAL       FAIR      54  42  64 NW7       29.95F
6HR MIN TEMP:  52; 6HR MAX TEMP:  64;

BLYTHE         FAIR      53  45  74 S6        29.96S
6HR MIN TEMP:  53; 6HR MAX TEMP:  61;

$$

NVZ020-UTZ003-030700-
SOUTHERN NEVADA-UTAH

CITY           SKY/WX    TMP DP  RH WIND       PRES   REMARKS
LAS VEGAS      NOT AVBL
SALT LAKE CITY CLOUDY    35  33  92 E3        29.79R
6HR MIN TEMP:  32; 6HR MAX TEMP:  38; 6HR PCP:  0.24;

$$

NMZ009-TXZ055-030700-
NEW MEXICO-WEST TEXAS

CITY           SKY/WX    TMP DP  RH WIND       PRES   REMARKS
ALBUQUERQUE    CLOUDY    44  35  70 N9        29.98R
6HR MIN TEMP:  44; 6HR MAX TEMP:  57; 6HR PCP: TRACE;

EL PASO        CLOUDY    60  43  53 SW13      29.96F
6HR MIN TEMP:  54; 6HR MAX TEMP:  61; 6HR PCP:  0.02;

$$


........................KEY........................
SKY/WX - SKY CONDITION/WEATHER
TMP    - TEMPERATURE IN FAHRENHEIT
DP     - DEW POINT IN FAHRENHEIT
RH     - RELATIVE HUMIDITY IN PERCENT
WIND   - DIRECTION AND SPEED IN MILES PER HOUR (MPH)
VRB    - VARIABLE WIND DIRECTION
PRES   - MEAN SEA LEVEL PRESSURE IN INCHES OF MERCURY
         F - FALLING PRESSURE   R - RISING PRESSURE
         S - STEADY PRESSURE
VSB    - VISIBILITY IN MILES
HX     - HEAT INDEX IN FAHRENHEIT
WCI    - WIND CHILL INDEX IN FAHRENHEIT
TC     - TEMPERATURE IN CELSIUS WHICH IS ALSO KNOWN AS
         TEMPERATURE IN CENTIGRADE
AFB    - AIR FORCE BASE
         LUKE AFB IS LUKE AIR FORCE BASE
         DAVIS-MONTHAN IS DAVIS-MONTHAN AIR FORCE BASE
NAS    - NAVAL AIR STATION
         EL CENTRO NAS IS EL CENTRO NAVAL AIR STATION
N/A    - NOT AVAILABLE



USA.gov is the U.S. government's official web portal to all federal, state and local government web resources and services.